カタログに戻る

STARLINK-5529

運用中通信VLEO
NORAD 56495·PAYLOAD·🇺🇸 United States

打ち上げ May 10, 2023 から Vandenberg Space Force Base

Loading…

次のパス (今後24時間)

TLE

最新Source: CelesTrak SupGP

元期: Sep 14, 2026, 22:21 UTC

1 56495C 23064AZ  26257.93173611 -.00039997  00000+0 -33547-2 0  2576
2 56495  70.0015 347.2353 0003174 271.1878 355.1367 14.98318934    11

AllMySatでSTARLINK-5529をリアルタイム追跡

Download on the App Store